[[{"header":{"parameterUnit":"m.s-1","parameterCategory":2,"la1":30.2991,"la2":30.254,"lo1":-89.0895,"lo2":-89.0444,"dy":0.0017,"dx":0.0017,"nx":28,"ny":28,"refTime":"2025-05-24T21:00:00:Z","depth":"0","parameterNumber":2,"parameterNumberName":"U-component_of_CURRENTS"},"data":[0,0,0,0,0,0,0,0,0,0,0,0,0,0,0,0,0,0,0,0,0,0,0,0,0,0,0,0,0,0,0,0,0,0,0,0,0,0,0,0,0,0,0,0,0,0,0,0,0,0,0,0,0,0,0,0,0,0,0.3457,0.3457,0,0.3435,0.3435,0.3434,0.3379,0.3378,0.3377,0.3377,0.3336,0.3335,0.3335,0,0,0,0,0,0,0,0,0,0,0,0,0,0.3436,0.3437,0.3457,0.3457,0.3457,0.3435,0.3435,0.3434,0.3379,0.3378,0.3377,0.3377,0.3336,0.3335,0.3335,0,0,0,0,0,0,0,0,0,0,0,0,0,0.3428,0.3437,0.3457,0.3431,0.3429,0.3436,0.3435,0.3434,0.3379,0.3378,0.3377,0.3376,0.3336,0.3335,0.3335,0.3351,0,0,0.3333,0.3332,0,0,0,0,0,0,0,0,0.3429,0.3428,0.3435,0.3433,0.3431,0.3413,0.3413,0.3407,0.3379,0.3393,0.3377,0.3376,0.3364,0.3361,0.3352,0.3349,0.3348,0.3333,0.3332,0.3332,0.3332,0,0,0,0,0,0,0,0.3429,0.3429,0.3443,0.3435,0.3433,0.3416,0.3413,0.3411,0.338,0.3391,0.3389,0.3395,0.3362,0.3353,0.3351,0.3347,0.3333,0.3332,0.3332,0.3331,0.341,0.3413,0,0,0,0,0,0,0.3445,0.343,0.3444,0.3443,0.3433,0.3418,0.3414,0.3416,0.338,0.3376,0.3396,0.3392,0.3354,0.3352,0.3349,0.3405,0.3332,0.3331,0.3331,0.3408,0.3411,0.3414,0,0,0,0,0,0,0.3444,0.3446,0.3445,0.344,0.3439,0.342,0.3421,0.3416,0.3407,0.3385,0.3378,0.3393,0.3354,0.335,0.3359,0.3402,0.3331,0.333,0.3405,0.3409,0.3412,0.3493,0,0,0,0,0,0,0.3444,0.3446,0.3451,0.3441,0.3441,0.3461,0.3423,0.3416,0.3415,0.341,0.3381,0.3376,0.3352,0.336,0.3358,0.34,0.333,0.3402,0.3407,0.3411,0.3487,0.3499,0.3509,0,0,0,0,0,0.3443,0.3451,0.3452,0.3454,0.3449,0.3462,0.346,0.3439,0.3416,0.3424,0.3405,0.3376,0.339,0.3361,0.3359,0.3401,0.3399,0.3405,0.3411,0.3482,0.3497,0.3509,0,0,0,0,0,0,0.3434,0.3447,0.3447,0.3455,0.3468,0.3455,0.3458,0.3447,0.3436,0.3427,0.3397,0.3392,0.3426,0.3404,0.3373,0.3442,0.3395,0.3401,0.3451,0.3464,0.3475,0.3455,0.3329,0,0,0,0,0,0.3442,0.3453,0.3466,0.3473,0.3483,0.3473,0.3475,0.3465,0.3457,0.345,0.3434,0.3429,0.3449,0.3445,0.3455,0.3477,0.3473,0.3509,0.352,0.3529,0.3515,0.3585,0.3601,0.3432,0.3432,0.3432,0,0,0.3441,0.3448,0.3455,0.3474,0.3475,0.349,0.347,0.3479,0.3489,0.345,0.3456,0.3468,0.3467,0.3503,0.3516,0.3484,0.3574,0.3536,0.3544,0.3524,0.3593,0.3609,0.3623,0.3436,0.3435,0.3435,0,0,0.3445,0.3455,0.3469,0.3481,0.3499,0.3503,0.3511,0.3514,0.3516,0.3533,0.3524,0.3557,0.356,0.3579,0.3586,0.3664,0.3639,0.3676,0.3702,0.3772,0.3786,0.3798,0.3803,0.3815,0.3671,0.3671,0.3671,0,0.3443,0.3457,0.3476,0.3489,0.3498,0.3512,0.3526,0.3539,0.3543,0.3561,0.3545,0.3599,0.3598,0.3658,0.3683,0.3688,0.37,0.3649,0.3786,0.3798,0.3809,0.381,0.3823,0.3676,0.3675,0.3675,0.3674,0,0.3453,0.3467,0.3476,0.35,0.352,0.3533,0.3563,0.3588,0.3597,0.3611,0.3675,0.3689,0.372,0.3744,0.3726,0.3817,0.379,0.3801,0.3747,0.383,0.3827,0.3838,0.3682,0.3681,0.3679,0.3678,0,0,0.3425,0.3476,0.3473,0.349,0.3522,0.3537,0.3582,0.363,0.3661,0.3694,0.3744,0.3794,0.3811,0.3821,0.3835,0.388,0.3967,0.3866,0.3868,0.3859,0.4082,0.3906,0.39,0.4011,0.4014,0.4016,0.4043,0,0.3422,0.345,0.3477,0.3503,0.3523,0.3561,0.3599,0.3647,0.3692,0.3749,0.3803,0.3856,0.3841,0.3871,0.3922,0.3969,0.4002,0.3955,0.401,0.4009,0.3836,0.391,0.3684,0.3676,0.4054,0.4055,0.4057,0,0.3409,0.3433,0.346,0.3514,0.3525,0.3546,0.3616,0.3656,0.3751,0.3791,0.3865,0.3908,0.3991,0.397,0.4073,0.4047,0.4061,0.4081,0.4083,0.3891,0.3854,0.3658,0.3682,0.3589,0.4073,0.4072,0.4071,0,0.3367,0.3415,0.3437,0.3448,0.3514,0.354,0.3581,0.3665,0.3711,0.3828,0.3882,0.398,0.4036,0.4101,0.4132,0.4123,0.4224,0.4226,0.407,0.4056,0.3854,0.3817,0.3779,0.429,0.429,0.429,0.429,0,0.3339,0.3353,0.3419,0.3423,0.346,0.3515,0.3564,0.363,0.3728,0.3784,0.39,0.3959,0.4076,0.4144,0.4166,0.4135,0.4259,0.4067,0.4061,0.3872,0.3838,0.3737,0.3726,0.4291,0.4291,0.429,0.429,0,0.3283,0.3323,0.3353,0.3418,0.3438,0.3463,0.3543,0.3586,0.369,0.3776,0.382,0.3966,0.4035,0.411,0.4202,0.4148,0.4021,0.4116,0.3843,0.3801,0.3514,0.3515,0.3331,0.3243,0.3936,0.3932,0.3929,0,0.3259,0.3269,0.3331,0.3346,0.3372,0.3417,0.3451,0.3553,0.3603,0.3757,0.3797,0.3904,0.3932,0.3984,0.3918,0.3895,0.3864,0.3672,0.3602,0.3452,0.3454,0.3362,0.3298,0.3376,0.3368,0.3362,0.3357,0,0.3217,0.3238,0.326,0.3288,0.3318,0.3352,0.341,0.3442,0.3559,0.3615,0.3686,0.3722,0.3734,0.3587,0.3542,0.3517,0.3454,0.3535,0.3488,0.308,0.2874,0.28,0.3379,0.3301,0.3306,0.3311,0.3314,0.3316,0.3184,0.3181,0.3206,0.3216,0.3246,0.3261,0.3235,0.3298,0.3326,0.3337,0.3476,0.3407,0.3339,0.3211,0.317,0.2928,0.3011,0.2814,0.285,0.2787,0.2618,0.302,0.2868,0.2871,0.2874,0.2876,0.2878,0,0.3123,0.3119,0.3133,0.312,0.3087,0.3149,0.3172,0.3107,0.3052,0.308,0.3062,0.2908,0.2729,0.2677,0.2439,0.2284,0.2219,0.2234,0.21,0.2094,0.254,0.243,0.2044,0.2044,0.2044,0.2044,0.2044,0.2044,0.3091,0.3058,0.3043,0.2949,0.2934,0.2832,0.2806,0.2738,0.2705,0.2524,0.2378,0.2361,0.2353,0.2172,0.1949,0.1893,0.1796,0.1618,0.1732,0.2092,0.2151,0.2207,0.2101,0.1652,0.1652,0.1147,0.1143,0.114]},{"header":{"parameterUnit":"m.s-1","parameterCategory":2,"la1":30.2991,"la2":30.254,"lo1":-89.0895,"lo2":-89.0444,"dy":0.0017,"dx":0.0017,"nx":28,"ny":28,"refTime":"2025-05-24T21:00:00:Z","depth":"0","parameterNumber":3,"parameterNumberName":"V-component_of_CURRENTS"},"data":[0,0,0,0,0,0,0,0,0,0,0,0,0,0,0,0,0,0,0,0,0,0,0,0,0,0,0,0,0,0,0,0,0,0,0,0,0,0,0,0,0,0,0,0,0,0,0,0,0,0,0,0,0,0,0,0,0,0,0.0487,0.0487,0,0.0493,0.0493,0.0493,0.0476,0.0476,0.0475,0.0475,0.0455,0.0455,0.0454,0,0,0,0,0,0,0,0,0,0,0,0,0,0.0434,0.0435,0.0487,0.0487,0.0488,0.0494,0.0493,0.0493,0.0476,0.0476,0.0475,0.0475,0.0455,0.0455,0.0454,0,0,0,0,0,0,0,0,0,0,0,0,0,0.0447,0.0435,0.0487,0.0482,0.0482,0.0494,0.0493,0.0493,0.0476,0.0476,0.0475,0.0475,0.0455,0.0455,0.0454,0.0459,0,0,0.0453,0.0453,0,0,0,0,0,0,0,0,0.0446,0.0449,0.0483,0.0483,0.0483,0.0486,0.0467,0.0481,0.0476,0.0475,0.0475,0.0475,0.0465,0.0464,0.0462,0.0458,0.0457,0.0453,0.0453,0.0452,0.0452,0,0,0,0,0,0,0,0.0446,0.0448,0.0486,0.0483,0.0483,0.0471,0.0472,0.047,0.0469,0.0475,0.0475,0.048,0.0465,0.0462,0.0461,0.0457,0.0453,0.0452,0.0452,0.0452,0.0469,0.047,0,0,0,0,0,0,0.0453,0.0448,0.0486,0.0487,0.0467,0.0473,0.0474,0.0483,0.047,0.0469,0.0481,0.048,0.0463,0.0462,0.0461,0.049,0.0452,0.0452,0.0452,0.0469,0.047,0.047,0,0,0,0,0,0,0.0452,0.0457,0.0486,0.047,0.0473,0.0474,0.0484,0.0483,0.0482,0.0475,0.0473,0.0481,0.0463,0.0461,0.0467,0.0488,0.0452,0.0451,0.0468,0.0469,0.047,0.0534,0,0,0,0,0,0,0.045,0.0456,0.0463,0.047,0.0474,0.0502,0.0485,0.0484,0.0488,0.0486,0.0474,0.0472,0.0463,0.0468,0.0467,0.0487,0.0451,0.0467,0.0468,0.047,0.0531,0.0537,0.0542,0,0,0,0,0,0.0449,0.0468,0.0464,0.0468,0.0485,0.0503,0.0504,0.0501,0.0488,0.0496,0.0488,0.0472,0.0476,0.0468,0.0467,0.0487,0.0466,0.0468,0.0469,0.0528,0.0535,0.0542,0,0,0,0,0,0,0.045,0.0469,0.0464,0.0488,0.0497,0.0502,0.0511,0.0504,0.0502,0.0499,0.0483,0.0481,0.0494,0.048,0.0472,0.0495,0.0468,0.0469,0.0513,0.052,0.0526,0.055,0.0451,0,0,0,0,0,0.0454,0.0471,0.0483,0.0501,0.0508,0.0506,0.0512,0.051,0.0512,0.0511,0.0504,0.0498,0.05,0.0501,0.0498,0.0512,0.0498,0.0523,0.0528,0.0533,0.0552,0.0558,0.0566,0.0476,0.0476,0.0476,0,0,0.046,0.0472,0.0482,0.0502,0.0507,0.0531,0.0508,0.0523,0.0545,0.0509,0.0532,0.0517,0.0507,0.0525,0.0529,0.0516,0.0546,0.0535,0.054,0.0556,0.056,0.0569,0.0577,0.0477,0.0477,0.0477,0,0,0.0491,0.0491,0.052,0.0531,0.0546,0.0548,0.0554,0.0563,0.0567,0.0584,0.0566,0.0568,0.0566,0.0571,0.057,0.0605,0.0575,0.0597,0.065,0.0655,0.0663,0.0669,0.064,0.0644,0.0601,0.0601,0.0602,0,0.0496,0.0535,0.053,0.056,0.0578,0.056,0.0596,0.06,0.0609,0.0625,0.06,0.0613,0.0594,0.063,0.0637,0.0621,0.0606,0.0625,0.0664,0.067,0.0676,0.0645,0.0648,0.0605,0.0604,0.0604,0.0604,0,0.0551,0.058,0.0598,0.0631,0.0646,0.0673,0.0682,0.0696,0.0691,0.0696,0.0723,0.07,0.0714,0.07,0.0678,0.0715,0.0683,0.0669,0.0649,0.0689,0.0653,0.0655,0.0609,0.0608,0.0607,0.0606,0,0,0.0571,0.0628,0.0634,0.0668,0.0687,0.0712,0.0746,0.0783,0.0821,0.0809,0.0863,0.0843,0.0827,0.0826,0.0798,0.0794,0.0801,0.0752,0.0751,0.0728,0.079,0.0751,0.0749,0.0796,0.0797,0.0799,0.0739,0,0.0618,0.0696,0.0707,0.0777,0.082,0.0819,0.086,0.0884,0.0894,0.0938,0.0916,0.0949,0.0877,0.0891,0.0876,0.0837,0.0815,0.0817,0.0751,0.0749,0.0714,0.0754,0.0756,0.0704,0.0741,0.0742,0.0742,0,0.067,0.0719,0.08,0.0873,0.0891,0.0928,0.0994,0.1029,0.1069,0.1079,0.1094,0.1078,0.1083,0.1015,0.0958,0.0964,0.0883,0.0831,0.0827,0.0777,0.0716,0.0674,0.0706,0.0662,0.0745,0.0745,0.0745,0,0.0704,0.0786,0.0857,0.0879,0.0952,0.0993,0.1032,0.1076,0.113,0.1179,0.1226,0.1207,0.122,0.1138,0.1024,0.0997,0.0951,0.09,0.0779,0.0773,0.0758,0.0749,0.075,0.0852,0.0852,0.0852,0.0852,0,0.0757,0.0814,0.0884,0.0925,0.1021,0.1047,0.1146,0.1179,0.1251,0.1342,0.1308,0.1378,0.1254,0.1211,0.108,0.0949,0.0992,0.0802,0.0771,0.0775,0.0769,0.0715,0.0673,0.085,0.085,0.0851,0.0851,0,0.0791,0.0832,0.0921,0.1009,0.1042,0.1112,0.1224,0.13,0.1353,0.1476,0.1505,0.1512,0.1456,0.1311,0.1177,0.103,0.0861,0.0837,0.0832,0.0801,0.063,0.0591,0.0527,0.0501,0.0692,0.0691,0.069,0,0.0822,0.0871,0.0978,0.104,0.1086,0.119,0.127,0.1345,0.1438,0.1572,0.1649,0.1632,0.1643,0.1421,0.1167,0.0929,0.0843,0.0754,0.0701,0.0641,0.0574,0.0541,0.0523,0.0687,0.0686,0.0686,0.0685,0,0.0879,0.091,0.0981,0.1104,0.1199,0.1312,0.1436,0.1526,0.164,0.1751,0.1881,0.1902,0.1692,0.1468,0.113,0.0957,0.0727,0.0729,0.0689,0.0596,0.0542,0.0496,0.068,0.0679,0.0679,0.068,0.068,0.068,0.0916,0.0971,0.106,0.1176,0.1285,0.1426,0.153,0.1676,0.1836,0.2,0.2023,0.2051,0.1735,0.128,0.1068,0.0678,0.0665,0.0549,0.0509,0.0484,0.0464,0.0617,0.057,0.057,0.057,0.057,0.057,0,0.0961,0.1025,0.1133,0.1268,0.1383,0.1439,0.1635,0.175,0.1946,0.2065,0.2158,0.1991,0.1642,0.1263,0.074,0.0511,0.0435,0.0399,0.0377,0.0369,0.0531,0.0539,0.0458,0.0458,0.0458,0.0459,0.0459,0.0459,0.0988,0.108,0.113,0.1315,0.1416,0.1578,0.169,0.1872,0.1993,0.2106,0.2086,0.206,0.1787,0.0982,0.0497,0.0388,0.0284,0.0219,0.018,0.0315,0.0327,0.0339,0.034,0.0219,0.0219,0.0055,0.0053,0.0051]}],[{"header":{"parameterUnit":"m.s-1","parameterCategory":2,"la1":30.2991,"la2":30.254,"lo1":-89.0895,"lo2":-89.0444,"dy":0.0017,"dx":0.0017,"nx":28,"ny":28,"refTime":"2025-05-24T21:00:00:Z","depth":"2","parameterNumber":2,"parameterNumberName":"U-component_of_CURRENTS"},"data":[0,0,0,0,0,0,0,0,0,0,0,0,0,0,0,0,0,0,0,0,0,0,0,0,0,0,0,0,0,0,0,0,0,0,0,0,0,0,0,0,0,0,0,0,0,0,0,0,0,0,0,0,0,0,0,0,0,0,0.2688,0.2688,0,0.2687,0.2687,0.2686,0.2661,0.2661,0.266,0.266,0.2659,0.266,0.266,0,0,0,0,0,0,0,0,0,0,0,0,0,0.2683,0.2683,0.2688,0.2688,0.2688,0.2687,0.2687,0.2686,0.2661,0.2661,0.266,0.266,0.2659,0.266,0.266,0,0,0,0,0,0,0,0,0,0,0,0,0,0.268,0.2682,0.2688,0.2678,0.2677,0.2687,0.2687,0.2686,0.2661,0.2661,0.266,0.266,0.2659,0.266,0.266,0.2673,0,0,0.2661,0.2662,0,0,0,0,0,0,0,0,0.2681,0.268,0.2679,0.2679,0.2678,0.2676,0.2685,0.2683,0.2661,0.2664,0.266,0.2659,0.2668,0.2667,0.2664,0.2673,0.2673,0.2661,0.2662,0.2662,0.2662,0,0,0,0,0,0,0,0.2681,0.268,0.2684,0.268,0.2679,0.2679,0.2678,0.2684,0.2666,0.2664,0.2663,0.2668,0.2667,0.2663,0.2663,0.2673,0.2661,0.2662,0.2662,0.2662,0.2741,0.2742,0,0,0,0,0,0,0.2687,0.268,0.2684,0.2684,0.2682,0.268,0.2678,0.2675,0.2666,0.2665,0.2668,0.2667,0.2663,0.2663,0.2663,0.2729,0.2662,0.2662,0.2663,0.2739,0.2741,0.2743,0,0,0,0,0,0,0.2687,0.2687,0.2684,0.2685,0.2685,0.2681,0.2677,0.2675,0.2683,0.267,0.2669,0.268,0.2662,0.2663,0.2682,0.2727,0.2663,0.2663,0.2737,0.2739,0.2742,0.2827,0,0,0,0,0,0,0.2687,0.2687,0.2691,0.2686,0.2686,0.2693,0.2678,0.2676,0.2688,0.2686,0.268,0.2678,0.2662,0.2681,0.2682,0.2726,0.2663,0.2734,0.2738,0.2741,0.2822,0.2833,0.2842,0,0,0,0,0,0.2686,0.2693,0.2691,0.2692,0.269,0.2693,0.2693,0.2686,0.269,0.2692,0.2695,0.2679,0.2704,0.2683,0.2684,0.2729,0.2733,0.2737,0.2741,0.2818,0.2831,0.2841,0,0,0,0,0,0,0.2696,0.2692,0.2689,0.2695,0.2697,0.269,0.27,0.2699,0.2704,0.2709,0.2696,0.2695,0.2738,0.2718,0.2695,0.2762,0.2719,0.2723,0.2777,0.2789,0.2798,0.2791,0.2664,0,0,0,0,0,0.2701,0.2705,0.2701,0.271,0.2713,0.2712,0.2717,0.2713,0.2716,0.2718,0.2716,0.2725,0.2755,0.2757,0.2771,0.2796,0.279,0.2828,0.2838,0.2846,0.2842,0.2896,0.291,0.2756,0.2756,0.2756,0,0,0.2702,0.271,0.2707,0.2713,0.2716,0.2722,0.2713,0.2725,0.2737,0.2719,0.2742,0.2765,0.2773,0.2811,0.2827,0.2796,0.2884,0.2851,0.2858,0.2849,0.2901,0.2916,0.293,0.2759,0.2759,0.2758,0,0,0.271,0.2721,0.272,0.273,0.2744,0.2744,0.2753,0.2755,0.2764,0.2793,0.2798,0.284,0.2862,0.2878,0.2892,0.2961,0.2945,0.2974,0.3005,0.3059,0.3072,0.3083,0.3084,0.3095,0.2966,0.2966,0.2966,0,0.2711,0.2716,0.2723,0.2736,0.2749,0.2758,0.2763,0.2779,0.2789,0.2813,0.2811,0.2894,0.2897,0.2962,0.2984,0.2984,0.2994,0.2962,0.3072,0.3083,0.3093,0.3092,0.3103,0.2971,0.297,0.297,0.2969,0,0.2715,0.2727,0.2737,0.2752,0.2766,0.278,0.2799,0.2824,0.2851,0.2872,0.2951,0.2972,0.302,0.304,0.3032,0.3114,0.309,0.3091,0.3042,0.3114,0.3107,0.3117,0.2978,0.2976,0.2974,0.2973,0,0,0.2691,0.2725,0.2733,0.274,0.2778,0.2785,0.2831,0.2868,0.291,0.2955,0.3015,0.3085,0.3113,0.313,0.3142,0.3177,0.3254,0.3162,0.3163,0.3161,0.3345,0.321,0.3206,0.3285,0.3288,0.329,0.3307,0,0.2687,0.2706,0.2733,0.2756,0.2759,0.2805,0.2844,0.2892,0.2945,0.3006,0.3072,0.3138,0.3143,0.3182,0.3227,0.3264,0.3286,0.3247,0.3276,0.3276,0.3147,0.3216,0.2948,0.2932,0.3317,0.3318,0.3319,0,0.2679,0.2692,0.2711,0.2752,0.2761,0.2788,0.2865,0.2905,0.3005,0.3055,0.3148,0.3196,0.3282,0.3265,0.3366,0.3348,0.3347,0.3357,0.3358,0.3205,0.3159,0.2925,0.2934,0.3335,0.3334,0.3333,0.3332,0,0.2648,0.2679,0.2696,0.2712,0.2761,0.2796,0.2834,0.2926,0.298,0.3096,0.3161,0.3265,0.3331,0.3382,0.3414,0.3407,0.3493,0.3484,0.335,0.3339,0.3098,0.3061,0.3529,0.3529,0.3529,0.3529,0.3529,0,0.2636,0.2641,0.2684,0.2697,0.273,0.2777,0.2848,0.2908,0.301,0.308,0.3189,0.3251,0.337,0.3431,0.344,0.3426,0.3523,0.3358,0.3346,0.3117,0.3083,0.3422,0.3409,0.3529,0.3529,0.3529,0.3529,0,0.2593,0.2626,0.2637,0.2693,0.272,0.2744,0.2848,0.2884,0.3007,0.3103,0.3147,0.3275,0.3352,0.3424,0.3492,0.3446,0.3447,0.34,0.3096,0.3046,0.3243,0.3235,0.3265,0.3261,0.3257,0.3254,0.3251,0,0.2567,0.258,0.2634,0.2647,0.2674,0.2731,0.2762,0.2873,0.2918,0.3095,0.3117,0.3238,0.3265,0.3314,0.3262,0.324,0.3352,0.2961,0.2891,0.3237,0.3223,0.322,0.3217,0.2604,0.2597,0.259,0.2585,0,0.2522,0.2554,0.2568,0.2598,0.2625,0.2652,0.271,0.2746,0.2874,0.2944,0.3006,0.3043,0.3089,0.293,0.291,0.2865,0.2951,0.2829,0.3301,0.2707,0.2614,0.26,0.2619,0.2529,0.2535,0.2539,0.2542,0.2544,0.249,0.2486,0.252,0.2528,0.2554,0.254,0.2525,0.258,0.2617,0.2671,0.2789,0.2747,0.2754,0.2567,0.2465,0.2388,0.2595,0.2478,0.2498,0.2524,0.2439,0.2345,0.2191,0.2194,0.2197,0.22,0.2202,0,0.2433,0.243,0.2442,0.2417,0.2382,0.2453,0.2452,0.2393,0.236,0.2429,0.2446,0.222,0.2084,0.2107,0.1876,0.1839,0.1838,0.1778,0.176,0.1816,0.1866,0.1749,0.1316,0.1313,0.1311,0.1309,0,0,0.24,0.2365,0.2353,0.2251,0.225,0.2161,0.2143,0.2065,0.2059,0.1974,0.1925,0.2044,0.2063,0.1692,0.161,0.1424,0.1626,0.1368,0.208,0.2118,0.2165,0.2265,0.2146,0,0,0,0,0]},{"header":{"parameterUnit":"m.s-1","parameterCategory":2,"la1":30.2991,"la2":30.254,"lo1":-89.0895,"lo2":-89.0444,"dy":0.0017,"dx":0.0017,"nx":28,"ny":28,"refTime":"2025-05-24T21:00:00:Z","depth":"2","parameterNumber":3,"parameterNumberName":"V-component_of_CURRENTS"},"data":[0,0,0,0,0,0,0,0,0,0,0,0,0,0,0,0,0,0,0,0,0,0,0,0,0,0,0,0,0,0,0,0,0,0,0,0,0,0,0,0,0,0,0,0,0,0,0,0,0,0,0,0,0,0,0,0,0,0,0.0264,0.0264,0,0.0265,0.0265,0.0265,0.0257,0.0256,0.0256,0.0256,0.0238,0.0237,0.0237,0,0,0,0,0,0,0,0,0,0,0,0,0,0.023,0.023,0.0264,0.0264,0.0264,0.0265,0.0265,0.0265,0.0257,0.0256,0.0256,0.0256,0.0238,0.0237,0.0237,0,0,0,0,0,0,0,0,0,0,0,0,0,0.0237,0.023,0.0264,0.0262,0.0261,0.0265,0.0265,0.0265,0.0257,0.0256,0.0256,0.0256,0.0238,0.0237,0.0237,0.0235,0,0,0.0235,0.0234,0,0,0,0,0,0,0,0,0.0237,0.0239,0.0262,0.0262,0.0262,0.0262,0.0246,0.0255,0.0257,0.0257,0.0256,0.0256,0.0245,0.0244,0.0242,0.0234,0.0234,0.0235,0.0234,0.0234,0.0234,0,0,0,0,0,0,0,0.0237,0.0238,0.0263,0.0262,0.0262,0.0252,0.0253,0.0247,0.025,0.0257,0.0257,0.0259,0.0245,0.0243,0.0242,0.0233,0.0235,0.0234,0.0234,0.0233,0.0232,0.0233,0,0,0,0,0,0,0.0241,0.0238,0.0263,0.0263,0.0251,0.0253,0.0254,0.0261,0.025,0.0249,0.0259,0.0259,0.0244,0.0242,0.0241,0.026,0.0234,0.0233,0.0233,0.0232,0.0232,0.0233,0,0,0,0,0,0,0.0241,0.0244,0.0263,0.0251,0.0253,0.0254,0.0261,0.0261,0.0263,0.0253,0.0251,0.0263,0.0244,0.0242,0.0242,0.0259,0.0233,0.0233,0.0231,0.0232,0.0232,0.0285,0,0,0,0,0,0,0.024,0.0244,0.0249,0.0252,0.0254,0.0271,0.0262,0.0261,0.0265,0.0265,0.0255,0.0253,0.0244,0.0243,0.0242,0.0257,0.0232,0.0231,0.0232,0.0232,0.0283,0.0287,0.0291,0,0,0,0,0,0.0239,0.0253,0.0249,0.0252,0.0262,0.0272,0.0272,0.027,0.0266,0.027,0.0264,0.0253,0.0246,0.0243,0.0241,0.0257,0.0231,0.0232,0.0232,0.0281,0.0286,0.0291,0,0,0,0,0,0,0.0242,0.0254,0.025,0.0267,0.0269,0.0271,0.0277,0.0274,0.0272,0.0271,0.0259,0.0256,0.0263,0.025,0.0247,0.0257,0.0236,0.0237,0.0274,0.0279,0.0283,0.03,0.0232,0,0,0,0,0,0.0245,0.0258,0.0262,0.0276,0.0279,0.0277,0.028,0.0279,0.0279,0.0278,0.0271,0.0264,0.0264,0.0263,0.0258,0.0264,0.0248,0.0271,0.0275,0.0279,0.0291,0.0282,0.0287,0.0235,0.0235,0.0235,0,0,0.0249,0.0258,0.0265,0.0277,0.0279,0.0295,0.0278,0.0288,0.0305,0.0276,0.0293,0.0278,0.0268,0.0277,0.0279,0.0269,0.0282,0.028,0.0283,0.0293,0.0284,0.0289,0.0293,0.0236,0.0236,0.0236,0,0,0.0272,0.0273,0.0293,0.03,0.0309,0.0309,0.0313,0.0316,0.032,0.0331,0.0317,0.0312,0.031,0.0307,0.0307,0.0328,0.0304,0.0322,0.036,0.0352,0.0356,0.036,0.0335,0.0336,0.0325,0.0325,0.0325,0,0.0276,0.0305,0.0299,0.0322,0.0337,0.0319,0.0346,0.0349,0.0351,0.0362,0.0345,0.0347,0.0329,0.0351,0.0354,0.034,0.0324,0.0344,0.0358,0.0362,0.0365,0.0338,0.0339,0.0328,0.0328,0.0327,0.0327,0,0.0317,0.0338,0.0352,0.0376,0.0388,0.0407,0.0412,0.042,0.0419,0.0421,0.0437,0.0412,0.0417,0.0404,0.0386,0.0402,0.0379,0.0365,0.0349,0.0374,0.0343,0.0343,0.0332,0.0331,0.033,0.0329,0,0,0.0333,0.0373,0.0379,0.0406,0.0421,0.044,0.0466,0.0491,0.0521,0.0505,0.0542,0.0523,0.0504,0.0501,0.0474,0.0458,0.0451,0.0422,0.042,0.0403,0.0421,0.039,0.0386,0.044,0.044,0.0441,0.0387,0,0.0367,0.0428,0.0436,0.0491,0.0524,0.0522,0.0555,0.0572,0.0579,0.0604,0.0579,0.0598,0.0545,0.055,0.0526,0.048,0.0455,0.0466,0.0395,0.0393,0.0368,0.0387,0.0401,0.0354,0.0387,0.0387,0.0387,0,0.0409,0.0447,0.051,0.0567,0.0582,0.0609,0.0663,0.0692,0.0712,0.072,0.0721,0.0699,0.0686,0.0631,0.0565,0.0576,0.0502,0.0452,0.0449,0.0406,0.0363,0.0337,0.0352,0.0386,0.0386,0.0386,0.0386,0,0.0441,0.0501,0.0558,0.0577,0.0632,0.0664,0.0694,0.0728,0.0776,0.0797,0.0829,0.0795,0.0798,0.0713,0.0602,0.0589,0.0515,0.0486,0.0385,0.0381,0.0373,0.0367,0.0429,0.0429,0.043,0.043,0.043,0,0.0484,0.0528,0.058,0.0614,0.0692,0.0712,0.0797,0.0819,0.087,0.0944,0.0896,0.0934,0.0819,0.076,0.0639,0.0517,0.0545,0.0398,0.0372,0.0388,0.0386,0.0399,0.0397,0.0428,0.0428,0.0429,0.0429,0,0.0513,0.0544,0.0615,0.0683,0.0712,0.077,0.0871,0.0932,0.097,0.1064,0.108,0.105,0.0979,0.0842,0.0703,0.0581,0.0456,0.0395,0.0412,0.0389,0.0312,0.0313,0.029,0.0289,0.0287,0.0286,0.0286,0,0.0536,0.0576,0.0668,0.0722,0.0756,0.0848,0.0916,0.0978,0.1054,0.114,0.1189,0.1146,0.1123,0.0898,0.069,0.0482,0.0444,0.0334,0.0309,0.0325,0.0301,0.0304,0.0306,0.031,0.031,0.0309,0.0309,0,0.058,0.0609,0.067,0.0779,0.0858,0.0958,0.1062,0.1139,0.1229,0.1297,0.1362,0.1345,0.1155,0.0948,0.0659,0.051,0.0371,0.0317,0.0347,0.0343,0.034,0.0318,0.032,0.0305,0.0305,0.0306,0.0306,0.0306,0.0611,0.0659,0.0739,0.0841,0.0937,0.1054,0.1144,0.1259,0.1377,0.1485,0.1468,0.1438,0.1218,0.0846,0.0604,0.0346,0.036,0.0245,0.0249,0.0252,0.0264,0.0259,0.021,0.021,0.021,0.0209,0.0209,0,0.065,0.0704,0.0799,0.0914,0.1016,0.1071,0.123,0.1311,0.1449,0.1537,0.1578,0.1345,0.1121,0.0862,0.0492,0.0266,0.0253,0.0173,0.0213,0.0219,0.0223,0.0235,0.0172,0.0171,0.0171,0.017,0,0,0.0672,0.0754,0.0797,0.0954,0.1046,0.1186,0.1282,0.1395,0.1483,0.1544,0.1533,0.1498,0.1194,0.0912,0.0614,0.0398,0.0356,0.0344,0.0398,0.0487,0.0494,0.0286,0.0313,0,0,0,0,0]}],[{"header":{"parameterUnit":"m.s-1","parameterCategory":2,"la1":30.2991,"la2":30.254,"lo1":-89.0895,"lo2":-89.0444,"dy":0.0017,"dx":0.0017,"nx":28,"ny":28,"refTime":"2025-05-24T21:00:00:Z","depth":"4","parameterNumber":2,"parameterNumberName":"U-component_of_CURRENTS"},"data":[0,0,0,0,0,0,0,0,0,0,0,0,0,0,0,0,0,0,0,0,0,0,0,0,0,0,0,0,0,0,0,0,0,0,0,0,0,0,0,0,0,0,0,0,0,0,0,0,0,0,0,0,0,0,0,0,0,0,0.1556,0.1557,0,0.1599,0.1599,0.1599,0.1634,0.1634,0.1635,0.1636,0.1679,0.1679,0.168,0,0,0,0,0,0,0,0,0,0,0,0,0,0.1526,0.1526,0.1556,0.1557,0.1558,0.1599,0.1599,0.1599,0.1634,0.1634,0.1635,0.1636,0.1678,0.1679,0.168,0,0,0,0,0,0,0,0,0,0,0,0,0,0.1548,0.1526,0.1556,0.1582,0.1585,0.1599,0.1599,0.16,0.1634,0.1634,0.1635,0.1636,0.1678,0.1679,0.168,0.1667,0,0,0.1683,0.1683,0,0,0,0,0,0,0,0,0.1547,0.1549,0.1577,0.158,0.1583,0.1614,0.1605,0.1623,0.1633,0.1612,0.1636,0.1637,0.1658,0.1661,0.1663,0.1669,0.1671,0.1683,0.1683,0.1683,0.1684,0,0,0,0,0,0,0,0.1545,0.1547,0.157,0.1578,0.1582,0.1599,0.1602,0.1608,0.1627,0.1614,0.1617,0.1626,0.166,0.1662,0.1664,0.1672,0.1683,0.1683,0.1684,0.1684,0.1767,0.1768,0,0,0,0,0,0,0.1543,0.1546,0.1569,0.1572,0.157,0.1599,0.1603,0.1601,0.1627,0.1633,0.1625,0.1628,0.166,0.1663,0.1666,0.1731,0.1683,0.1684,0.1685,0.1765,0.1767,0.1769,0,0,0,0,0,0,0.1542,0.1544,0.1567,0.1563,0.1567,0.1598,0.1597,0.1602,0.1638,0.1637,0.1642,0.166,0.1661,0.1665,0.17,0.173,0.1685,0.1685,0.1763,0.1766,0.1768,0.181,0,0,0,0,0,0,0.1541,0.1543,0.1557,0.1562,0.1568,0.1592,0.1596,0.1602,0.1641,0.1645,0.1667,0.167,0.1662,0.1699,0.1701,0.173,0.1686,0.1761,0.1764,0.1767,0.1807,0.1814,0.182,0,0,0,0,0,0.1539,0.1546,0.1557,0.1561,0.1579,0.1593,0.1598,0.1621,0.1642,0.1657,0.168,0.1672,0.1721,0.1701,0.1703,0.1733,0.176,0.1763,0.1767,0.1804,0.1813,0.182,0,0,0,0,0,0,0.154,0.1551,0.1563,0.1573,0.1592,0.16,0.1624,0.1641,0.167,0.1687,0.1687,0.1691,0.1734,0.1731,0.1709,0.1769,0.1741,0.1746,0.1769,0.1777,0.1783,0.1797,0.1687,0,0,0,0,0,0.1546,0.1557,0.1569,0.1583,0.1596,0.1619,0.1636,0.1651,0.1671,0.1687,0.1706,0.1728,0.1745,0.176,0.1772,0.1801,0.1807,0.1825,0.1832,0.1837,0.1852,0.1885,0.1896,0.1781,0.1781,0.1781,0,0,0.1554,0.1561,0.157,0.1586,0.1606,0.1623,0.1631,0.1665,0.1689,0.1686,0.1737,0.1752,0.1759,0.1792,0.1811,0.1797,0.1874,0.1842,0.1847,0.1859,0.189,0.1901,0.1911,0.1784,0.1783,0.1783,0,0,0.1562,0.158,0.1591,0.1608,0.1642,0.1651,0.1669,0.1698,0.1726,0.177,0.1776,0.1814,0.1844,0.1852,0.1859,0.1912,0.1907,0.1921,0.1966,0.1997,0.2007,0.2015,0.2034,0.2044,0.1925,0.1925,0.1925,0,0.1579,0.1582,0.16,0.1615,0.1636,0.1668,0.1689,0.1715,0.1756,0.1785,0.1799,0.1867,0.1873,0.1908,0.1931,0.1927,0.1942,0.193,0.2005,0.2014,0.2022,0.2039,0.2049,0.1927,0.1927,0.1927,0.1926,0,0.1579,0.1602,0.1614,0.164,0.1666,0.1691,0.1725,0.1767,0.1814,0.1841,0.191,0.1928,0.1971,0.1979,0.1974,0.2033,0.2024,0.2007,0.1981,0.2036,0.205,0.206,0.1931,0.193,0.1929,0.1928,0,0,0.1572,0.1607,0.1618,0.1635,0.1683,0.1698,0.1756,0.1805,0.1852,0.191,0.1971,0.2015,0.2045,0.2056,0.2059,0.2091,0.2157,0.2083,0.2084,0.2095,0.2228,0.2064,0.2058,0.2155,0.2157,0.2159,0.2214,0,0.1575,0.1598,0.1622,0.1661,0.1677,0.173,0.1776,0.1832,0.1894,0.196,0.2008,0.2066,0.2066,0.2101,0.2135,0.2154,0.2186,0.2143,0.218,0.2181,0.2023,0.2065,0.2166,0.2221,0.2223,0.2225,0.2226,0,0.1563,0.1583,0.1616,0.1669,0.1685,0.1721,0.1808,0.1855,0.1951,0.2007,0.2083,0.2122,0.2192,0.2181,0.2255,0.2231,0.2244,0.2252,0.2254,0.2094,0.2034,0.2158,0.2244,0.2242,0.2241,0.224,0.2239,0,0.1526,0.1577,0.1603,0.1621,0.1687,0.1732,0.1784,0.188,0.1934,0.2051,0.2109,0.2187,0.2248,0.2282,0.2313,0.2299,0.2379,0.2352,0.2214,0.2202,0.2316,0.2306,0.2405,0.2405,0.2405,0.2405,0.2405,0,0.1495,0.1523,0.1594,0.1607,0.1658,0.1722,0.1797,0.1868,0.1975,0.2033,0.2136,0.2186,0.2284,0.2333,0.2341,0.2303,0.2404,0.2231,0.2207,0.2331,0.2323,0.2322,0.2312,0.2407,0.2406,0.2406,0.2406,0,0.1443,0.1488,0.1522,0.1604,0.1638,0.1682,0.1798,0.1842,0.1966,0.2049,0.2093,0.222,0.228,0.2338,0.2399,0.2325,0.231,0.2271,0.2408,0.239,0.2108,0.21,0.212,0.2115,0.2111,0.2107,0.2104,0,0.1408,0.1419,0.1512,0.1538,0.1581,0.1659,0.1704,0.1829,0.1877,0.2039,0.2059,0.2178,0.2238,0.2196,0.2267,0.2261,0.2232,0.2206,0.215,0.2105,0.2081,0.208,0.2078,0.2097,0.2095,0.2094,0.2093,0,0.1344,0.1392,0.1424,0.1478,0.1529,0.1567,0.1648,0.1673,0.1806,0.1938,0.1977,0.2005,0.2065,0.2098,0.2112,0.2102,0.2209,0.2159,0.2168,0.2115,0.2076,0.2057,0.206,0.2077,0.208,0.2081,0.2082,0,0.1306,0.1311,0.1359,0.1394,0.1451,0.1449,0.1505,0.155,0.1613,0.1794,0.1803,0.1921,0.2047,0.2015,0.2023,0.2003,0.1968,0.1888,0.1911,0.1929,0.1836,0.1757,0.1646,0,0,0,0,0,0.1256,0.1243,0.1266,0.128,0.1329,0.1363,0.1447,0.1504,0.1642,0.1622,0.1709,0.1751,0.1773,0.1837,0.1777,0.1926,0.1969,0.1844,0.1888,0.1991,0.2009,0.1915,0,0,0,0,0,0,0.1218,0.1239,0.1228,0.1178,0.1175,0.1202,0.1255,0.1343,0.1342,0.1499,0.1526,0.1638,0.1693,0.1797,0.1746,0.1761,0.1746,0.1923,0.1918,0.1981,0.1997,0.2011,0.1921,0,0,0,0,0]},{"header":{"parameterUnit":"m.s-1","parameterCategory":2,"la1":30.2991,"la2":30.254,"lo1":-89.0895,"lo2":-89.0444,"dy":0.0017,"dx":0.0017,"nx":28,"ny":28,"refTime":"2025-05-24T21:00:00:Z","depth":"4","parameterNumber":3,"parameterNumberName":"V-component_of_CURRENTS"},"data":[0,0,0,0,0,0,0,0,0,0,0,0,0,0,0,0,0,0,0,0,0,0,0,0,0,0,0,0,0,0,0,0,0,0,0,0,0,0,0,0,0,0,0,0,0,0,0,0,0,0,0,0,0,0,0,0,0,0,0.0186,0.0186,0,0.0188,0.0188,0.0188,0.0189,0.0189,0.019,0.019,0.0183,0.0182,0.0182,0,0,0,0,0,0,0,0,0,0,0,0,0,0.016,0.016,0.0186,0.0186,0.0186,0.0188,0.0188,0.0188,0.0189,0.0189,0.019,0.019,0.0183,0.0182,0.0182,0,0,0,0,0,0,0,0,0,0,0,0,0,0.0166,0.016,0.0186,0.0188,0.0188,0.0188,0.0188,0.0188,0.0189,0.0189,0.019,0.019,0.0183,0.0182,0.0182,0.0177,0,0,0.0181,0.0181,0,0,0,0,0,0,0,0,0.0166,0.0167,0.0188,0.0188,0.0188,0.0189,0.0176,0.0184,0.0189,0.0188,0.019,0.019,0.0184,0.0184,0.0183,0.0177,0.0176,0.0181,0.0181,0.018,0.018,0,0,0,0,0,0,0,0.0166,0.0167,0.0186,0.0188,0.0188,0.018,0.0181,0.0177,0.0185,0.0188,0.0188,0.019,0.0184,0.0183,0.0183,0.0176,0.0181,0.018,0.018,0.018,0.0175,0.0175,0,0,0,0,0,0,0.0168,0.0167,0.0186,0.0186,0.0178,0.0181,0.0182,0.0188,0.0185,0.0185,0.019,0.019,0.0184,0.0183,0.0183,0.0196,0.018,0.018,0.018,0.0175,0.0175,0.0175,0,0,0,0,0,0,0.0168,0.017,0.0186,0.0177,0.0178,0.0181,0.0188,0.0188,0.0192,0.0186,0.0186,0.0194,0.0184,0.0183,0.0184,0.0195,0.018,0.0179,0.0175,0.0175,0.0175,0.0209,0,0,0,0,0,0,0.0167,0.017,0.0176,0.0177,0.0179,0.0192,0.0188,0.0188,0.0193,0.0193,0.019,0.0189,0.0184,0.0185,0.0184,0.0194,0.0179,0.0175,0.0175,0.0175,0.0208,0.021,0.0213,0,0,0,0,0,0.0166,0.0176,0.0176,0.0178,0.0187,0.0192,0.0193,0.0194,0.0193,0.0198,0.0195,0.019,0.0186,0.0185,0.0184,0.0194,0.0175,0.0175,0.0175,0.0207,0.021,0.0213,0,0,0,0,0,0,0.0167,0.0177,0.0177,0.019,0.0193,0.0193,0.0198,0.0197,0.0198,0.0199,0.0192,0.0191,0.0195,0.0187,0.0187,0.0191,0.0179,0.0179,0.0203,0.0206,0.0208,0.022,0.0179,0,0,0,0,0,0.017,0.0181,0.0185,0.0195,0.0198,0.0198,0.0201,0.0201,0.0202,0.0203,0.02,0.0196,0.0194,0.0195,0.019,0.0194,0.0176,0.0198,0.02,0.0202,0.021,0.0187,0.0188,0.0176,0.0176,0.0176,0,0,0.0173,0.018,0.0186,0.0195,0.0198,0.0211,0.02,0.0208,0.022,0.0202,0.0216,0.0204,0.0196,0.0201,0.0202,0.0197,0.0195,0.0203,0.0205,0.0211,0.0187,0.0188,0.019,0.0176,0.0176,0.0176,0,0,0.0186,0.0191,0.0205,0.0211,0.0219,0.022,0.0224,0.0227,0.0232,0.024,0.0229,0.0224,0.0224,0.0219,0.0217,0.0228,0.0207,0.0225,0.025,0.0228,0.0229,0.023,0.0205,0.0203,0.0229,0.0229,0.0229,0,0.019,0.0211,0.0209,0.0225,0.0236,0.0228,0.0247,0.025,0.0253,0.0259,0.0251,0.0245,0.0234,0.0241,0.0244,0.0235,0.0217,0.0242,0.0232,0.0232,0.0232,0.0207,0.0204,0.023,0.023,0.023,0.023,0,0.0215,0.0232,0.0242,0.0262,0.0271,0.0285,0.0291,0.0298,0.03,0.03,0.0304,0.0285,0.0283,0.0275,0.0266,0.0264,0.0248,0.0236,0.0226,0.0235,0.0208,0.0205,0.0233,0.0232,0.0232,0.0231,0,0,0.0224,0.0255,0.0259,0.028,0.0294,0.0308,0.0327,0.0344,0.0364,0.0351,0.0369,0.0354,0.0337,0.0333,0.0313,0.0293,0.0272,0.0268,0.0266,0.0248,0.022,0.0206,0.0201,0.0257,0.0256,0.0256,0.0199,0,0.0247,0.0289,0.0296,0.0337,0.036,0.0363,0.0388,0.0399,0.0403,0.0414,0.0389,0.0395,0.0361,0.0362,0.0335,0.0291,0.0266,0.0289,0.0211,0.0209,0.0198,0.0197,0.0256,0.0197,0.0196,0.0195,0.0195,0,0.0271,0.0299,0.0345,0.0388,0.0399,0.0421,0.0459,0.0481,0.0487,0.0491,0.048,0.0457,0.0431,0.0399,0.0325,0.034,0.0285,0.0244,0.024,0.0216,0.0189,0.0185,0.0189,0.0189,0.019,0.019,0.019,0,0.0287,0.0333,0.0375,0.0389,0.0433,0.0457,0.0482,0.0504,0.0537,0.0539,0.0553,0.0509,0.0498,0.0422,0.0332,0.0329,0.0242,0.0227,0.016,0.0158,0.0173,0.0173,0.0171,0.0171,0.0171,0.0172,0.0172,0,0.031,0.0343,0.0389,0.0412,0.0472,0.049,0.055,0.0566,0.0598,0.0638,0.0595,0.0603,0.0504,0.044,0.0347,0.0244,0.025,0.0166,0.0144,0.0188,0.019,0.017,0.0171,0.0169,0.017,0.017,0.0171,0,0.032,0.0348,0.0401,0.0457,0.0482,0.0526,0.0604,0.0647,0.0667,0.0715,0.0719,0.0676,0.0595,0.0484,0.036,0.0275,0.017,0.0129,0.0185,0.0166,0.0097,0.01,0.0056,0.0055,0.0054,0.0053,0.0053,0,0.0329,0.0357,0.0435,0.0477,0.0507,0.0578,0.0633,0.068,0.0728,0.0758,0.0779,0.072,0.0673,0.0488,0.0363,0.0185,0.0156,0.0093,0.0094,0.0103,0.0086,0.009,0.0094,0.0051,0.0051,0.0051,0.0051,0,0.0347,0.0374,0.042,0.0507,0.0573,0.065,0.0726,0.0766,0.0821,0.0838,0.0828,0.0736,0.0644,0.0494,0.0355,0.0226,0.0129,0.0084,0.0085,0.0086,0.0097,0.0082,0.0087,0.0048,0.0048,0.0049,0.0049,0,0.036,0.0392,0.0455,0.0533,0.0616,0.0694,0.0738,0.0794,0.0841,0.087,0.0862,0.076,0.0706,0.0514,0.0385,0.0258,0.0224,0.0169,0.0165,0.0166,0.0211,0.0242,0.0221,0,0,0,0,0,0.0373,0.0409,0.0478,0.0561,0.0644,0.0696,0.0789,0.0828,0.0878,0.0878,0.0874,0.0787,0.0605,0.0526,0.0398,0.0361,0.0194,0.0204,0.0127,0.0033,0.0036,0.0067,0,0,0,0,0,0,0.0381,0.0441,0.0472,0.057,0.063,0.0724,0.0786,0.0824,0.0828,0.0853,0.0763,0.0732,0.0559,0.0674,0.0386,0.035,0.0278,0.0127,0.0123,0.0031,0.0034,0.0036,0.007,0,0,0,0,0]}]]